Wind_Speed
18 18 16 17 18 18 18 18 18 18 18 18 17 17 17 18 19 18 18 19 19 18 17 18 19 19 18 18 19 19 21 26 28 26 19 18 22 21 21 22 23 18 11 9 9 7 6 4 4 3 2 2 3 2 3 3 2 2 3 5 7 6 6 7 8 7 5 5 6 7 7 6 6 7 4 2 3 2 4 5 3 6 8 10 18 30 33 32
18 18 17 17 18 18 18 18 19 18 18 18 17 17 17 18 18 18 19 20 20 19 18 18 18 19 19 18 18 17 22 27 25 23 20 12 16 16 16 16 18 19 16 12 9 5 2 2 2 1 3 2 2 3 4 3 3 5 3 5 9 6 6 7 9 7 6 7 8 9 5 6 6 6 3 2 4 1 5 4 5 9 11 14 21 28 29 30
18 18 18 18 18 18 18 18 19 19 19 19 18 18 18 18 17 17 18 19 20 20 19 18 18 18 18 18 17 17 20 22 17 14 9 8 15 21 19 14 12 15 19 17 11 7 7 3 3 3 2 3 3 3 5 4 4 5 3 7 8 5 5 6 8 8 8 8 8 9 3 1 5 3 2 5 5 2 4 3 6 10 12 15 16 21 25 25
18 18 18 18 18 18 18 18 19 19 19 19 19 19 18 18 18 17 18 18 19 20 20 19 18 18 17 18 16 15 16 14 9 5 5 7 17 25 21 14 7 12 18 17 11 8 8 4 2 2 2 3 3 3 5 6 4 3 5 7 5 6 5 6 8 9 8 6 6 6 1 4 6 2 3 5 5 4 5 5 7 14 17 18 15 17 21 21
19 19 19 19 19 19 19 19 19 19 19 19 20 20 19 19 18 18 18 17 18 18 20 20 19 18 17 17 14 12 10 6 2 7 8 5 21 26 22 20 7 11 16 14 10 9 8 2 3 2 2 2 4 4 5 7 4 2 8 7 3 6 6 7 8 8 7 4 5 4 1 4 4 3 4 2 3 5 5 2 9 16 19 20 18 17 18 19
18 19 19 19 19 19 19 19 19 19 19 19 20 20 20 20 19 19 18 17 17 17 18 19 19 18 17 17 14 9 2 3 6 1 7 7 23 25 20 20 10 7 13 14 9 6 5 3 3 2 2 3 6 7 4 7 6 5 7 6 5 6 6 5 6 8 7 6 8 6 3 3 2 5 4 2 3 6 2 9 16 18 20 21 20 19 18 18
19 19 19 19 19 19 19 19 19 19 20 20 20 20 20 20 20 19 18 18 18 17 18 18 19 19 18 18 13 7 4 10 21 14 11 17 25 20 16 18 10 3 11 13 9 4 3 4 4 3 3 3 6 7 5 5 8 9 6 3 6 7 7 5 5 8 8 10 9 3 2 2 3 5 0 3 4 2 5 14 20 20 21 22 19 17 16 16
20 20 20 20 20 20 20 20 20 19 20 20 20 20 20 20 20 19 19 19 18 18 18 17 17 18 18 16 10 6 6 20 32 24 22 26 21 14 15 17 11 3 9 12 9 6 4 5 6 3 3 5 4 4 6 6 8 11 8 3 4 6 7 7 7 7 7 9 5 3 5 7 7 3 4 3 2 4 10 15 19 19 19 18 17 17 15 15
20 20 20 21 21 21 21 21 20 20 20 20 20 20 20 19 19 19 19 19 19 18 17 17 17 16 17 13 7 8 13 28 30 25 24 19 15 13 16 16 14 11 6 12 10 8 5 5 7 5 4 5 5 3 4 7 7 8 8 6 5 5 6 7 8 9 8 5 4 5 7 8 7 1 5 2 2 5 11 15 17 18 17 15 15 15 15 17
20 20 20 21 21 21 22 22 21 21 21 20 20 19 19 19 19 19 19 19 19 18 18 17 15 15 16 10 7 9 13 19 18 17 16 12 15 18 18 17 15 13 8 9 10 9 7 6 7 5 2 3 4 4 4 6 4 4 8 9 10 8 6 5 7 9 8 5 6 7 7 8 6 1 1 2 4 7 13 14 14 16 16 15 13 12 13 15
21 20 20 21 21 22 21 21 22 22 21 21 20 19 19 20 20 20 19 19 19 19 17 16 15 13 13 8 7 10 8 8 11 13 15 16 21 23 24 23 17 13 10 8 9 11 13 11 7 3 3 2 2 4 5 6 4 4 6 8 11 10 9 7 7 7 4 5 8 9 7 8 3 2 5 9 7 8 15 14 13 15 14 13 12 10 9 10
21 21 21 21 22 22 22 22 22 22 22 21 20 20 20 20 20 21 20 20 19 18 17 15 14 12 11 7 11 20 14 10 15 20 24 26 28 29 28 26 20 16 13 8 10 13 15 15 9 5 4 2 2 2 3 4 3 5 5 5 7 9 12 12 9 6 5 4 6 9 5 7 6 3 9 14 10 8 14 14 12 13 12 12 11 9 8 10
21 21 21 21 22 22 22 23 23 23 22 21 21 21 21 20 22 22 21 20 18 18 17 15 14 12 9 6 15 27 26 25 27 29 34 33 31 34 30 26 23 19 16 13 14 16 15 16 13 8 5 1 3 3 3 3 1 4 4 4 4 6 10 12 10 6 7 5 6 8 4 7 7 3 11 13 11 12 13 13 12 11 10 10 9 9 8 10
21 21 22 22 22 23 23 24 24 24 23 23 23 23 23 23 25 25 23 21 19 17 16 14 13 11 7 10 19 27 25 26 30 33 35 32 27 31 30 23 20 18 17 18 20 19 17 17 13 8 6 4 3 5 5 4 1 2 4 4 5 4 4 6 9 8 8 5 8 9 5 7 6 5 12 10 12 15 14 12 12 11 9 9 9 9 9 9
22 23 24 24 23 24 24 25 25 24 24 24 25 25 25 26 28 28 26 22 19 16 15 13 12 8 6 12 20 20 15 14 23 29 28 24 18 19 21 16 12 13 14 16 18 18 18 15 11 7 5 4 4 5 4 3 2 2 5 6 6 5 3 3 8 11 10 5 7 10 5 6 5 6 10 9 10 12 14 13 12 11 9 10 8 7 7 7
24 24 25 26 26 25 26 26 25 24 24 24 25 26 26 29 31 30 29 24 19 15 12 9 8 6 5 8 10 11 8 8 15 19 17 17 16 17 18 14 10 12 13 14 16 17 16 10 6 6 4 3 6 3 1 2 3 3 5 5 5 6 3 4 5 9 12 6 5 9 6 4 3 7 8 7 8 10 13 12 11 11 10 10 8 6 8 7
25 26 27 27 27 27 27 26 25 25 25 24 25 26 27 30 32 31 28 20 14 13 11 8 5 5 7 10 11 9 6 8 10 12 12 14 16 19 17 8 6 9 9 11 13 11 8 6 4 5 5 4 4 5 3 6 6 3 2 3 3 6 6 4 5 5 11 10 7 7 6 4 3 10 10 7 8 10 12 12 11 11 10 11 9 7 8 9
27 28 27 28 27 27 27 25 25 25 24 24 24 26 29 29 25 20 14 4 4 5 8 9 6 3 6 9 9 6 4 9 14 15 18 17 15 19 16 7 3 4 4 5 6 5 4 3 3 4 5 6 6 8 8 7 6 3 4 4 2 4 7 8 5 4 9 11 9 7 7 5 3 9 10 7 8 10 11 12 11 11 11 12 10 8 8 9
28 28 28 28 27 28 27 25 25 25 25 24 24 25 24 17 10 5 1 6 6 2 3 6 7 4 5 5 8 7 11 16 18 17 18 16 12 15 13 8 4 2 2 2 4 6 4 2 4 6 8 10 10 9 8 3 6 7 5 5 4 4 5 7 6 6 8 8 8 8 8 6 5 8 10 6 5 6 7 8 9 10 10 9 9 8 9 10
28 28 28 28 28 27 26 25 25 25 24 24 23 20 12 7 5 2 1 2 4 4 4 3 8 9 10 10 9 11 16 16 12 10 12 10 4 6 7 5 3 3 4 3 4 5 5 4 7 9 8 10 10 9 7 5 4 7 5 5 6 5 4 5 6 7 7 7 7 8 9 8 8 10 10 7 6 6 8 9 9 10 9 8 8 8 9 9
27 28 27 28 28 27 25 25 25 24 23 21 16 8 2 3 4 3 3 5 9 10 11 9 11 13 14 17 17 12 12 10 8 12 16 14 4 4 4 5 5 4 5 4 2 1 5 8 9 7 6 8 9 8 8 8 5 4 4 4 4 5 4 6 6 6 5 6 5 7 9 8 6 8 7 7 8 9 11 13 11 11 10 8 8 8 8 7
27 27 28 28 28 26 25 24 24 24 20 13 7 1 3 5 5 6 5 7 9 10 13 13 13 14 17 24 26 13 6 7 11 13 10 8 7 6 4 6 6 4 5 4 2 2 6 9 7 6 5 6 7 8 9 10 8 3 3 3 3 4 3 5 5 3 3 5 4 6 9 4 2 5 4 5 6 6 8 10 10 11 12 10 10 9 10 9
26 27 29 28 27 26 24 24 25 21 11 7 7 5 6 8 9 10 5 5 9 7 10 12 13 12 14 21 21 12 7 7 8 11 7 5 5 7 6 6 7 5 6 7 6 5 6 5 6 7 6 7 7 8 10 8 6 4 4 4 3 3 2 3 4 1 3 3 3 7 5 1 3 4 4 2 2 3 4 4 4 7 9 10 9 9 12 13
28 29 28 28 28 25 23 25 21 11 5 12 14 8 6 10 10 9 3 4 7 5 8 12 11 9 14 15 9 11 9 7 7 11 8 6 5 6 6 6 7 7 7 8 8 6 4 3 8 8 7 8 7 8 11 8 5 4 4 5 3 3 3 3 4 2 3 2 4 8 4 3 1 4 4 1 1 5 5 5 6 6 5 6 6 7 10 11
29 29 28 29 27 23 23 21 11 5 10 15 11 5 8 11 9 6 2 3 5 4 5 8 6 7 14 11 6 10 6 6 10 9 5 6 5 4 5 5 5 8 9 8 6 5 5 5 9 11 9 9 7 7 10 8 5 4 3 6 6 5 4 3 2 3 4 1 2 6 3 3 1 3 5 2 2 5 5 6 10 9 8 8 9 9 10 9
29 28 30 29 24 22 20 10 4 9 13 8 4 7 10 11 8 3 0 3 5 3 1 2 2 3 6 5 7 6 2 6 11 12 9 7 4 3 5 4 4 8 8 7 4 3 5 7 8 13 11 10 8 6 9 9 6 3 5 8 7 6 4 3 1 3 5 4 4 3 5 3 1 2 6 5 4 6 5 7 11 10 9 10 9 9 10 10
31 30 32 29 22 20 14 6 7 10 7 3 5 9 8 7 5 1 1 3 3 2 1 1 2 1 3 5 9 6 2 5 5 11 13 11 6 2 4 4 3 5 5 5 4 3 8 10 9 13 12 10 9 6 7 10 7 3 6 9 8 6 6 5 3 3 3 2 4 1 5 2 2 4 6 7 6 7 7 9 11 11 10 11 10 9 11 12
32 32 32 28 22 18 14 11 9 6 5 5 6 7 5 4 2 2 1 2 1 1 1 2 1 5 5 5 11 7 5 3 0 7 13 15 10 3 3 4 4 6 7 8 5 3 9 12 10 13 11 8 7 5 7 10 7 4 6 9 8 8 6 4 4 2 1 1 4 2 5 3 4 4 4 7 7 8 10 12 13 13 13 13 11 11 12 12
32 32 33 29 23 18 14 12 9 6 5 4 4 5 3 1 1 2 1 1 0 1 2 0 3 5 4 4 9 9 6 1 2 2 10 13 11 4 1 4 5 7 9 9 5 2 7 10 9 11 10 7 6 5 8 11 7 3 6 6 4 4 5 5 4 2 1 0 4 5 5 3 3 4 4 6 7 9 10 11 12 12 13 13 12 12 12 11
33 33 34 30 23 15 9 11 14 8 3 2 3 4 2 0 1 2 1 1 1 0 1 1 2 1 1 0 6 9 7 4 4 1 7 7 6 5 1 1 4 5 7 8 7 6 4 7 8 7 7 6 7 5 7 10 8 5 5 3 3 2 1 2 2 3 2 4 6 7 7 5 2 5 5 7 10 13 11 9 10 12 13 14 13 12 12 11
34 36 35 27 20 13 5 7 9 4 0 1 3 2 0 1 1 1 3 1 1 1 1 2 2 1 1 1 2 6 6 5 5 3 4 5 5 4 2 1 2 4 5 5 7 9 5 6 7 5 6 7 7 5 5 8 9 7 5 3 2 2 2 3 3 2 4 6 6 6 7 7 5 6 5 10 14 14 13 12 15 16 16 15 13 13 13 12
37 38 32 22 16 12 9 5 4 2 1 1 2 1 1 1 1 3 2 1 2 2 1 1 2 2 1 1 2 3 4 4 3 5 5 6 6 5 5 5 3 5 6 6 7 7 6 4 5 6 8 10 9 6 5 6 8 7 5 6 4 1 1 2 2 2 4 5 4 6 8 5 6 6 7 14 15 13 14 15 17 19 18 16 14 13 12 11
40 37 26 14 10 13 12 6 5 5 2 1 0 1 1 1 3 4 3 1 1 1 1 2 3 4 3 2 2 3 3 2 4 5 6 6 7 5 6 6 3 4 5 6 7 5 3 3 4 7 7 10 11 8 7 7 8 8 7 7 6 4 4 5 3 1 2 4 3 5 8 3 4 4 9 17 19 16 14 13 13 14 14 13 12 12 11 11
39 30 18 11 10 14 13 6 7 8 4 3 1 0 2 3 3 4 3 3 3 2 2 4 4 5 4 3 2 2 4 3 4 5 5 5 6 5 5 6 6 2 3 6 5 5 5 3 6 8 6 10 13 10 7 6 6 7 5 6 5 4 5 4 3 3 3 3 2 2 5 4 3 4 8 14 15 9 6 5 7 8 9 10 9 10 10 11
34 23 14 11 12 12 12 9 8 8 6 3 1 2 3 3 3 2 3 3 2 3 5 5 3 1 2 3 3 2 2 2 5 5 3 5 5 6 5 5 7 4 3 6 4 3 5 4 5 7 5 12 14 8 7 7 5 5 4 6 5 5 5 2 3 6 4 2 2 2 3 4 4 4 6 5 9 7 7 8 10 10 10 11 10 10 10 10
29 20 11 8 8 7 8 10 11 11 7 2 1 3 3 3 3 1 2 3 2 3 6 6 1 2 1 1 2 3 3 2 5 5 3 4 5 6 5 3 5 5 4 5 3 3 5 3 5 8 7 11 14 10 8 7 5 4 4 5 5 5 5 3 2 1 4 4 4 2 2 2 0 4 6 6 11 9 9 10 11 12 13 13 12 11 10 10
27 19 9 6 7 5 6 11 13 12 5 1 3 4 2 3 3 2 3 5 3 2 3 3 1 2 2 1 1 4 4 1 4 5 2 3 5 4 5 3 4 7 6 4 2 3 6 3 5 10 9 9 13 12 9 6 6 6 5 6 3 3 2 2 2 2 4 4 4 1 4 2 2 2 4 5 9 9 10 11 11 13 14 14 13 13 11 11
23 14 6 7 9 3 7 12 13 9 2 1 5 6 3 2 3 3 4 6 4 1 1 1 1 1 1 2 2 3 2 1 4 5 2 2 3 4 7 4 5 8 7 5 2 2 4 2 4 8 11 7 9 12 8 6 6 5 6 6 4 4 2 1 2 1 2 3 3 0 2 2 4 4 3 7 11 10 11 12 13 15 16 14 13 13 12 10
15 6 3 7 8 2 9 12 11 5 2 2 4 4 2 3 5 5 6 5 3 1 1 2 1 2 2 2 3 1 2 3 4 3 2 3 2 4 8 6 5 9 7 6 4 3 0 3 2 6 11 7 5 8 8 8 6 3 5 6 3 3 4 3 3 3 3 3 3 0 1 2 5 6 9 14 15 15 14 13 15 17 17 14 12 13 12 11
8 2 2 7 6 5 11 9 5 1 3 3 3 3 3 5 6 7 7 4 2 1 1 2 3 2 2 2 2 1 3 2 3 2 2 4 3 3 7 8 5 7 7 6 5 3 2 2 2 3 6 8 5 7 9 10 8 5 5 6 4 2 3 2 1 2 3 3 3 2 0 5 6 5 12 16 15 16 17 16 14 15 15 14 13 13 12 11
5 1 1 6 3 8 9 3 1 1 3 3 3 4 5 6 6 8 7 2 2 2 1 2 3 1 0 0 1 2 2 2 2 2 2 5 4 2 5 9 6 4 7 5 4 3 1 1 2 1 4 7 6 6 8 10 9 7 5 5 6 5 4 3 2 2 2 3 4 5 3 6 6 4 10 13 13 16 18 17 15 14 16 15 14 14 14 12
3 1 3 8 2 8 4 2 3 1 2 4 6 6 5 6 5 7 6 1 1 2 1 2 3 2 2 2 2 3 2 1 1 2 2 4 6 5 4 8 8 5 6 5 5 4 3 1 1 2 4 5 5 6 10 11 9 7 5 4 6 6 5 6 5 3 1 2 2 4 3 5 6 4 5 6 6 9 11 13 13 14 16 15 14 15 14 12
2 3 6 11 3 8 3 3 3 3 3 6 9 7 4 2 4 5 4 3 2 1 1 2 2 2 3 3 1 1 1 0 1 2 2 3 6 9 6 8 10 6 4 4 4 3 3 1 0 1 2 1 1 4 7 7 7 6 4 3 6 7 5 5 5 4 4 3 2 4 2 5 6 3 1 2 2 3 4 6 9 10 11 12 14 15 14 12
3 3 4 11 10 2 1 3 3 5 7 9 11 7 1 2 4 5 5 4 3 3 3 2 2 2 3 2 1 2 1 1 1 3 2 1 2 8 8 10 12 7 3 4 3 3 2 2 2 3 4 3 3 5 5 3 4 4 3 3 6 8 7 4 2 3 3 4 5 5 3 6 6 4 3 5 6 6 6 6 9 9 9 10 11 12 13 12
4 1 3 8 11 4 2 0 2 5 8 11 11 9 6 2 3 3 4 5 3 3 3 3 3 3 2 1 1 3 1 2 0 4 4 4 3 3 7 11 12 10 7 6 2 1 1 2 4 4 6 6 5 6 6 5 4 2 3 5 5 7 9 6 2 3 2 3 4 5 4 6 5 3 5 6 7 8 7 8 10 10 11 12 11 11 12 11
2 2 2 5 6 4 1 1 2 3 7 9 7 8 9 9 5 2 3 3 4 4 3 3 2 2 3 1 2 3 4 2 2 3 3 4 4 1 2 7 10 9 8 9 7 1 0 2 4 5 7 7 6 6 5 5 6 3 3 6 5 5 7 6 5 3 4 3 2 4 5 3 3 1 6 6 8 9 8 11 12 11 12 12 11 11 11 10
2 1 3 4 3 3 2 3 4 5 7 7 5 6 10 11 9 3 2 1 4 5 3 2 4 4 3 4 3 3 4 2 2 2 4 4 3 4 3 4 7 8 8 7 5 2 2 2 4 6 7 7 6 6 6 7 8 6 6 5 5 6 6 7 5 5 5 6 1 7 5 6 6 8 9 9 9 9 9 11 13 13 13 13 12 12 13 12
3 1 2 3 3 3 3 5 7 8 10 8 4 6 10 12 10 7 3 1 3 5 3 3 6 8 8 6 3 2 4 4 3 3 4 4 4 5 4 4 3 5 7 4 1 3 3 1 2 4 4 4 4 7 8 8 7 7 8 7 7 8 8 7 6 6 6 6 5 7 8 8 8 9 10 10 9 11 12 11 11 12 13 13 13 14 15 13
3 1 2 2 2 5 5 8 9 9 9 9 5 6 10 12 11 8 4 3 3 3 3 3 7 10 10 7 3 3 3 3 2 3 2 3 4 4 3 4 1 4 5 3 3 2 4 1 2 3 4 3 3 5 8 8 7 5 5 6 8 8 7 5 5 5 5 4 4 7 8 6 7 6 6 3 3 6 7 8 9 11 13 14 15 15 16 15
2 2 3 3 3 6 6 6 7 6 6 7 5 6 9 10 12 11 7 4 5 4 3 5 9 10 10 7 3 2 0 1 2 3 2 3 3 2 2 1 2 3 1 2 4 0 3 0 3 3 5 5 6 5 7 8 8 6 3 4 7 7 4 3 4 5 4 4 3 6 5 4 5 3 3 3 5 7 8 8 10 11 12 14 14 14 15 15
5 5 5 4 4 5 4 3 5 4 4 4 5 8 9 9 12 13 8 4 4 5 5 6 10 9 7 7 3 1 1 3 6 7 6 4 3 1 0 1 2 4 4 2 3 2 3 1 2 4 5 3 6 5 7 7 9 8 5 3 7 6 3 2 3 5 5 6 6 7 3 4 4 3 6 5 6 9 9 10 10 10 12 14 14 13 14 14
9 6 5 4 3 4 4 5 5 4 3 4 7 9 9 10 13 12 6 2 3 6 5 4 7 6 5 6 5 2 3 6 10 10 7 6 6 5 4 5 4 3 2 2 2 1 2 2 2 3 4 3 5 2 7 8 8 3 2 4 6 4 3 2 2 3 6 8 7 4 5 5 3 5 6 5 6 8 10 11 12 12 12 12 12 13 13 14
Wind_Direction
350 345 342 341 337 336 335 334 333 332 332 331 331 332 330 329 326 325 325 326 326 322 320 319 318 317 312 310 309 309 314 314 314 311 295 290 301 295 284 274 267 271 256 251 276 290 308 307 288 249 183 148 184 203 205 204 160 165 171 211 221 197 196 178 181 188 167 214 236 249 239 204 259 289 275 348 51 100 75 35 33 48 57 94 115 126 131 132
353 350 348 344 339 336 334 332 330 330 329 327 327 328 328 330 327 327 326 324 325 321 319 320 319 318 316 316 312 312 318 316 312 296 285 321 353 338 318 298 270 254 247 254 261 252 262 317 352 80 136 157 217 191 197 200 180 194 159 202 221 193 188 181 175 181 172 197 226 243 217 179 229 260 298 332 319 360 99 50 53 79 84 97 111 121 125 127
350 349 348 346 342 338 335 332 330 329 327 326 324 323 324 325 324 325 325 324 323 320 319 318 318 320 318 318 314 317 322 317 308 283 280 27 19 3 355 328 284 245 236 236 243 239 222 230 3 41 129 200 223 189 196 200 198 198 166 216 225 181 192 201 178 190 200 189 216 242 214 209 257 239 326 309 290 263 163 154 104 116 116 112 112 117 120 119
345 345 345 343 341 339 336 333 330 328 326 325 323 322 321 320 321 321 322 323 321 321 320 317 318 320 321 321 317 323 328 314 289 224 151 49 8 3 5 353 308 225 223 225 229 238 235 238 4 47 148 209 234 206 201 203 196 183 201 220 201 160 194 221 202 205 214 192 210 238 7 307 287 291 293 296 288 267 221 213 153 145 132 122 118 117 122 119
342 341 341 339 338 336 335 333 330 328 325 324 323 321 320 317 318 316 317 318 319 322 320 318 317 319 323 322 321 330 334 310 273 145 153 25 3 357 360 6 357 207 208 210 211 230 240 216 78 71 159 188 216 214 207 208 198 212 222 218 167 162 196 219 209 216 222 216 239 249 281 265 288 308 262 232 240 250 240 193 131 136 131 127 129 129 130 129
340 338 338 335 334 333 332 330 328 327 324 323 321 320 318 316 316 314 313 313 316 318 319 320 318 319 319 320 324 316 283 259 308 149 186 320 349 345 353 8 6 195 191 193 201 222 218 162 124 154 171 180 219 220 203 204 207 239 236 213 201 188 199 211 196 218 223 222 243 239 228 236 335 301 255 144 260 272 245 122 121 128 131 131 134 136 138 139
339 337 336 334 333 332 330 328 326 325 324 322 320 319 316 315 315 314 312 310 311 313 316 319 319 320 318 323 321 279 210 257 272 262 257 306 331 335 344 1 14 176 188 190 202 202 166 165 170 168 175 199 222 225 227 228 223 234 244 215 214 208 216 224 198 209 211 221 233 221 247 249 261 274 352 49 326 322 105 121 125 129 132 133 133 135 136 137
340 338 337 336 334 333 330 327 325 324 322 320 319 318 316 315 314 312 311 308 308 309 311 314 318 322 321 327 315 267 234 247 256 266 286 304 316 325 337 353 13 349 211 205 207 188 168 174 181 170 190 220 219 212 218 234 242 234 236 246 226 218 225 233 234 222 214 226 220 180 246 252 245 256 68 58 356 93 117 122 125 126 128 132 135 135 134 136
339 337 336 335 334 333 330 328 326 323 320 319 317 316 315 313 312 310 309 307 306 305 306 310 314 319 322 325 298 273 255 249 260 279 290 301 303 307 329 343 356 348 261 233 229 199 186 175 192 196 187 231 240 225 201 207 236 228 221 244 247 239 235 228 236 236 229 224 163 181 230 256 258 316 61 79 117 119 122 122 124 125 127 133 139 140 142 145
336 335 333 333 332 331 329 327 326 323 320 318 316 315 313 312 311 308 306 304 304 302 302 305 309 317 322 319 283 274 263 256 265 274 273 290 296 299 317 327 336 337 314 272 247 213 203 192 196 202 201 262 245 241 222 203 243 233 202 228 241 248 258 227 225 236 239 227 180 184 218 247 253 193 130 133 146 142 121 121 130 129 132 138 140 143 147 149
335 333 331 330 330 329 328 326 324 322 319 317 317 315 312 311 309 306 304 301 299 299 299 299 303 311 311 309 274 258 256 258 253 258 270 289 297 298 305 311 314 312 305 300 268 232 218 214 202 186 211 238 249 274 256 225 271 278 208 225 237 242 259 246 241 240 227 236 195 180 219 244 234 195 184 157 166 159 129 131 140 135 137 140 138 142 147 150
335 333 330 328 327 326 326 324 322 320 317 316 315 314 311 309 306 304 302 298 295 293 294 295 297 301 300 291 251 244 249 266 263 273 282 287 292 291 295 299 296 288 280 277 278 262 235 222 215 218 225 191 196 246 264 241 253 263 232 235 239 235 246 239 242 234 189 228 184 163 221 249 239 215 157 151 165 158 135 139 146 143 140 140 142 143 150 158
334 332 330 328 326 325 323 322 320 318 315 314 312 311 310 306 302 301 300 297 292 287 287 290 289 292 293 272 252 254 263 272 271 278 279 280 285 284 287 289 286 280 266 253 258 267 255 232 217 230 253 206 200 224 306 327 255 245 224 222 237 236 243 227 225 218 198 219 161 156 223 250 253 184 145 153 156 147 141 147 149 148 144 145 150 149 159 166
333 331 330 329 327 325 322 320 319 317 315 313 311 310 307 305 302 300 300 294 289 284 282 285 288 286 273 261 271 276 280 277 270 269 269 273 281 283 285 284 279 273 261 252 252 261 262 242 216 225 256 227 261 317 341 345 305 205 175 193 207 217 245 213 206 194 202 225 161 170 227 246 257 152 154 160 158 152 146 155 155 152 152 149 155 157 165 172
332 332 331 330 327 325 323 322 321 318 315 313 311 310 308 304 302 299 299 294 287 282 276 281 281 277 277 273 281 291 297 282 269 266 265 269 271 276 282 278 273 269 261 254 252 257 256 238 205 211 253 207 229 303 340 344 321 182 182 203 198 205 273 229 207 186 194 225 167 180 219 250 243 171 169 163 167 159 146 158 160 154 155 149 156 162 163 169
332 331 330 329 327 325 325 324 322 319 317 315 312 310 307 304 301 298 298 293 283 273 269 278 258 230 255 276 294 307 292 267 273 278 272 263 249 250 266 271 271 270 267 258 251 252 244 222 179 196 225 203 195 189 10 328 288 248 199 198 188 190 227 251 238 194 186 197 196 199 202 248 228 170 178 169 176 166 147 161 162 155 160 153 158 164 164 167
332 331 330 329 327 326 327 324 322 321 321 319 314 310 308 305 301 299 300 290 270 257 248 246 218 208 246 270 299 310 280 269 292 301 290 272 252 249 256 261 271 269 272 267 250 242 228 201 170 183 199 211 180 147 186 225 226 251 173 179 206 174 176 217 261 213 180 187 214 212 200 228 196 163 175 182 180 167 154 163 164 161 162 159 161 163 168 170
332 330 328 328 327 328 327 324 322 324 323 320 314 311 310 308 304 304 306 269 203 232 239 235 218 226 252 251 267 282 302 308 308 303 294 289 264 247 239 216 239 265 280 280 240 203 183 195 175 164 185 200 193 173 195 206 181 175 148 162 211 162 176 199 228 218 174 186 204 196 204 220 165 162 174 179 181 175 166 163 165 167 164 165 165 166 172 172
332 329 327 328 329 329 329 326 324 324 324 321 317 316 316 319 323 328 33 129 130 131 221 216 195 215 288 253 234 263 304 306 301 292 283 284 261 235 222 212 228 201 206 241 198 183 170 168 173 186 198 196 198 189 197 198 135 155 161 152 166 161 194 206 220 223 169 171 199 186 196 196 158 173 177 172 177 176 165 155 161 167 164 167 167 168 173 174
332 329 328 330 330 330 329 327 324 324 325 323 323 326 332 349 357 354 65 161 211 237 257 215 194 229 285 289 274 294 311 305 291 274 268 277 254 202 195 187 190 185 202 191 185 188 161 185 206 202 202 193 192 180 193 239 146 146 155 151 167 167 211 220 219 228 168 157 204 186 184 192 174 181 181 162 152 159 162 160 169 170 166 171 172 172 172 172
332 329 330 331 330 329 329 326 323 324 325 321 324 336 341 336 322 315 329 266 240 234 252 245 219 233 253 267 276 295 315 307 283 275 273 270 237 171 179 164 171 196 194 184 222 204 169 206 215 201 199 182 180 164 175 231 222 146 155 164 174 172 210 228 217 229 179 162 211 179 175 196 178 174 176 153 156 174 175 170 174 172 167 171 174 173 168 162
332 330 331 331 329 328 327 324 322 323 325 322 329 340 262 291 289 288 295 280 258 225 237 244 236 245 247 256 264 267 279 283 288 290 271 238 192 177 174 164 183 191 165 182 246 219 202 215 198 181 189 158 164 165 168 214 229 189 164 150 175 195 219 252 251 252 168 170 217 179 173 190 123 129 142 160 174 185 189 184 178 172 170 175 179 175 169 164
332 329 330 331 328 326 325 322 322 324 329 330 316 275 282 305 298 295 278 280 285 231 222 234 232 244 247 254 256 234 219 234 266 281 249 182 177 181 174 176 186 175 166 191 199 191 206 208 172 171 185 162 163 172 171 200 224 193 157 146 203 223 176 225 259 285 139 151 161 156 154 60 59 98 126 186 193 141 169 193 173 176 180 182 183 174 172 172
330 328 330 331 328 326 323 321 324 330 334 323 307 279 314 329 313 311 296 265 287 250 224 228 222 231 241 251 232 189 208 209 217 261 244 181 175 178 179 181 177 184 194 195 196 207 242 209 163 166 188 179 168 175 177 188 208 195 159 156 197 211 172 215 240 178 119 79 119 121 82 343 104 132 160 222 161 142 150 154 158 185 197 186 185 183 184 181
330 329 330 331 328 324 320 320 325 336 323 319 310 291 324 331 327 331 318 268 284 266 231 226 216 230 238 236 175 170 207 224 216 239 227 171 173 177 188 178 173 203 199 180 189 214 254 242 166 169 195 188 174 185 183 176 184 211 198 176 185 188 195 272 274 158 135 262 219 126 102 283 180 150 200 211 176 166 155 157 169 183 187 186 191 189 192 189
330 329 329 330 327 322 323 321 304 321 321 312 321 323 318 323 334 3 49 279 283 263 202 200 186 226 243 201 162 160 196 249 226 219 224 225 219 183 188 181 187 210 190 166 200 207 225 238 184 175 190 189 189 198 188 171 156 208 217 185 188 194 204 249 250 149 168 220 255 165 160 239 295 221 217 200 183 183 170 169 178 185 187 193 197 187 185 187
329 327 328 329 326 322 320 293 290 311 308 283 326 329 327 328 326 84 108 284 276 236 217 194 160 318 310 178 160 148 193 260 219 196 208 215 214 187 183 185 181 196 168 160 216 199 187 212 200 181 182 190 199 200 186 168 150 220 214 173 179 196 202 208 170 146 184 229 302 241 137 139 262 231 196 177 178 186 188 185 185 191 194 198 198 186 184 187
327 326 327 327 324 314 294 275 282 278 256 296 328 325 337 341 313 108 51 294 257 147 204 199 260 310 307 170 160 178 232 299 42 188 187 185 187 156 153 204 195 178 171 180 208 178 179 201 199 182 185 194 193 177 163 156 157 213 190 164 179 192 189 186 166 155 115 35 310 271 122 125 261 259 158 162 182 195 203 202 196 194 195 197 195 185 186 188
326 325 326 328 324 309 285 260 250 245 270 311 329 323 336 340 13 73 76 282 283 128 118 139 298 301 293 170 175 211 248 314 338 180 155 167 186 180 171 214 197 183 182 189 210 192 180 194 190 181 191 188 166 161 157 159 170 175 151 143 145 166 173 180 188 178 84 188 241 217 153 138 269 266 162 160 194 206 210 209 202 197 194 195 190 183 186 185
325 323 326 329 322 311 290 249 244 255 295 331 319 323 327 173 48 31 233 249 319 149 127 268 298 351 333 204 187 216 241 256 298 360 139 154 180 191 239 188 177 191 185 184 218 249 202 176 182 185 187 164 150 164 164 164 168 147 140 127 68 54 136 154 159 116 142 246 238 202 172 151 238 256 189 178 200 199 199 202 200 200 196 192 187 182 183 181
324 323 325 325 313 299 277 250 247 238 83 344 334 333 274 119 92 226 242 245 255 222 183 246 279 14 41 19 201 212 225 248 295 288 182 147 148 184 212 212 188 174 172 175 213 253 250 178 181 170 156 148 149 174 176 171 172 155 141 133 110 329 2 45 23 94 178 248 251 198 169 159 215 252 202 204 212 197 191 195 193 194 193 188 185 181 180 178
323 324 323 317 300 263 233 252 251 177 128 321 350 44 101 13 233 225 242 310 275 236 213 233 257 286 6 28 250 217 214 231 242 254 230 155 154 194 186 192 184 151 177 187 192 233 254 212 184 151 157 162 159 173 178 180 183 166 147 144 154 195 191 193 227 189 204 246 245 177 154 170 231 243 205 208 215 201 195 200 194 190 188 184 181 177 175 171
325 326 320 306 281 245 238 261 243 213 199 180 96 68 132 254 254 227 223 271 259 201 203 238 243 266 279 277 257 206 204 219 192 232 248 173 160 195 200 214 219 155 167 172 174 193 220 262 207 170 168 173 172 178 182 187 186 177 167 164 167 162 170 199 213 207 219 239 244 168 159 200 258 247 210 206 209 202 198 202 193 183 178 174 172 170 168 165
328 329 321 296 263 246 247 245 211 206 196 161 114 149 222 245 250 245 236 225 241 255 255 261 263 262 241 226 253 198 174 201 212 222 227 183 168 189 206 220 220 194 120 150 178 178 169 234 217 187 170 173 183 189 173 156 169 181 153 137 160 169 166 187 193 182 201 235 278 149 166 193 194 237 235 211 204 191 171 165 149 149 155 156 158 163 166 167
330 332 323 291 263 250 242 223 200 191 179 132 84 237 243 255 250 269 273 242 253 289 289 287 286 256 202 202 250 244 155 178 220 228 214 188 189 192 194 207 209 207 139 164 192 174 178 240 216 192 179 171 181 191 159 131 156 184 117 122 181 186 152 135 172 174 167 199 252 168 194 217 196 276 303 180 162 140 126 127 128 138 150 153 159 166 169 168
335 340 336 292 275 264 225 205 190 182 176 124 280 243 241 247 241 235 272 279 284 296 308 314 360 110 124 185 227 190 141 136 195 216 237 192 198 196 183 191 195 191 171 167 184 162 170 261 214 185 196 182 174 180 178 161 163 168 142 171 198 168 137 124 195 172 109 157 232 198 199 286 274 313 337 114 135 134 135 138 141 149 155 159 166 170 173 169
337 339 334 304 308 297 205 187 179 180 179 141 248 258 258 243 248 227 259 294 303 285 315 332 97 117 120 128 64 124 128 148 178 192 239 187 210 202 173 193 199 195 195 168 189 177 155 255 242 183 195 202 173 172 191 184 153 150 187 205 176 114 109 108 155 356 70 164 250 204 169 194 150 258 323 112 138 149 147 146 150 155 162 170 173 173 173 165
330 325 309 318 329 302 193 178 170 173 187 244 258 271 266 239 242 227 254 294 307 265 293 325 217 302 75 101 57 86 142 224 166 180 218 171 224 196 166 195 214 203 205 164 169 278 155 197 264 189 187 202 169 166 193 209 174 153 182 192 149 146 195 125 150 172 128 178 250 306 172 199 184 202 199 156 164 169 156 151 158 166 173 175 172 172 169 158
330 322 316 341 342 258 181 168 160 167 251 262 278 285 268 269 270 256 261 278 291 261 292 342 345 308 340 63 79 99 245 236 157 182 209 153 232 219 171 182 220 205 194 155 161 285 200 144 217 198 178 163 155 170 188 204 200 170 170 178 161 149 166 166 162 164 165 185 208 215 356 249 222 205 185 182 181 172 162 165 172 175 176 172 168 170 167 160
337 338 344 350 342 182 166 160 153 200 259 253 277 278 289 298 290 287 280 254 241 281 296 332 339 338 348 33 84 175 263 256 171 188 216 168 202 244 182 184 219 200 173 162 181 253 312 145 189 215 158 143 170 197 187 183 184 184 175 172 174 157 140 148 162 150 144 159 177 159 252 262 250 202 187 190 183 172 171 175 178 175 171 169 166 165 165 163
329 8 360 353 346 165 154 162 222 271 258 262 275 260 292 313 298 301 305 246 197 258 280 298 300 302 273 246 166 180 231 267 187 174 218 182 175 246 205 195 205 176 157 176 201 201 228 185 165 175 153 162 191 193 168 163 169 172 170 175 185 178 130 133 204 247 118 144 173 151 179 262 266 204 196 196 184 180 178 174 171 170 168 166 165 164 163 162
332 8 314 347 325 181 166 293 252 279 274 288 309 283 286 311 299 299 316 336 187 221 228 258 260 246 215 213 205 204 215 286 223 193 191 180 187 220 217 189 194 179 156 185 223 192 165 125 130 185 185 193 202 169 154 156 153 154 170 186 181 171 132 136 189 230 152 160 167 125 154 259 270 241 213 206 191 187 179 169 167 169 168 163 160 161 160 159
354 294 308 354 360 198 233 321 276 318 301 294 312 297 254 269 288 298 319 333 334 302 265 257 242 224 222 228 250 295 328 325 248 239 202 163 194 217 203 173 191 196 155 186 228 191 165 174 275 197 182 231 20 107 135 146 134 140 184 180 164 180 171 148 170 182 162 179 153 110 178 256 281 296 173 98 80 110 126 143 153 157 160 158 157 159 158 157
331 277 285 352 358 241 262 341 314 326 320 314 322 321 271 200 251 296 324 322 325 341 316 280 241 224 235 252 251 277 307 234 310 336 323 350 221 220 202 179 191 202 178 190 183 143 192 222 140 135 136 111 86 107 128 166 159 160 185 164 162 177 166 145 133 102 134 196 156 129 196 249 289 344 86 105 97 101 102 112 133 144 150 154 157 157 157 154
322 289 238 330 348 12 98 23 302 314 317 321 325 328 337 323 249 263 299 300 301 327 309 270 249 239 251 352 291 280 316 158 95 2 341 318 309 226 190 184 197 207 214 230 230 119 236 212 143 148 158 154 159 170 176 179 170 159 152 149 158 161 156 163 142 93 150 201 135 134 198 255 301 24 108 122 112 111 116 124 137 151 155 155 156 155 155 154
344 2 315 322 342 22 75 258 302 318 317 322 322 327 341 342 323 257 231 285 324 331 294 260 282 265 255 357 46 359 2 129 163 356 341 317 321 308 197 191 202 211 222 249 267 285 87 207 169 155 161 167 181 200 193 144 128 144 152 143 148 149 140 131 116 137 184 158 136 208 196 209 287 177 143 152 144 137 139 142 147 156 159 156 153 151 151 151
36 5 349 343 320 345 352 318 344 341 314 315 319 326 336 336 333 325 204 260 338 329 295 281 360 10 343 351 40 15 349 54 94 3 333 318 302 301 294 195 197 219 223 239 252 178 129 235 199 153 160 179 175 170 164 129 128 158 162 139 140 142 121 111 136 188 165 122 242 254 189 163 213 206 180 174 162 150 154 159 160 161 160 156 151 149 149 149
25 4 346 353 308 315 333 319 328 324 310 309 312 329 337 337 340 344 323 298 332 333 336 343 353 2 353 347 27 25 356 40 50 345 326 327 320 326 359 109 153 242 228 239 305 137 140 224 196 137 151 188 156 144 147 132 130 157 161 145 137 144 145 146 176 195 152 139 213 219 178 180 210 206 191 180 168 165 167 165 161 155 153 153 153 153 153 152
10 327 322 360 307 291 287 292 304 307 312 324 333 339 340 336 335 334 316 303 324 334 10 1 339 343 342 339 22 42 18 37 4 311 328 346 331 343 37 92 19 285 235 260 315 130 128 322 288 116 104 50 44 110 131 126 122 135 154 148 135 146 167 163 163 166 135 131 190 167 162 206 227 210 201 180 132 143 145 140 145 153 158 158 159 160 159 157
9 308 322 332 296 286 268 279 306 304 314 336 342 339 337 329 330 332 319 312 323 326 353 353 333 332 334 337 14 71 85 227 256 262 303 349 339 355 47 112 303 321 309 277 291 239 115 289 298 77 85 30 13 61 100 116 126 116 83 91 104 115 140 135 133 142 108 80 100 116 124 253 253 184 126 81 100 118 128 141 151 160 164 161 160 162 160 157
340 292 301 304 297 306 295 303 321 308 315 344 342 337 334 322 324 329 319 307 303 299 316 334 325 323 331 336 353 98 241 262 251 249 255 275 274 254 317 271 308 350 2 332 294 328 60 68 2 56 81 17 4 65 90 86 99 92 58 77 108 116 155 169 146 153 144 129 109 95 107 248 243 147 111 104 129 138 146 154 154 162 167 164 163 163 159 157
342 296 291 297 285 304 321 324 326 319 327 339 332 331 324 309 314 324 321 290 268 277 279 292 303 311 330 325 312 302 301 277 262 258 250 239 239 240 250 267 287 310 306 286 298 5 64 82 53 71 100 22 341 118 116 85 83 78 290 187 146 144 181 156 105 153 157 143 128 142 203 203 156 130 124 129 155 165 171 171 165 165 167 165 165 164 162 163
Height
824 823 821 820 819 818 816 815 814 813 812 810 809 808 806 805 803 802 801 799 798 796 795 794 792 792 790 789 788 787 784 782 779 778 775 767 762 762 761 761 761 763 764 764 764 764 763 763 763 764 766 767 768 767 766 766 766 769 774 779 777 776 773 766 766 765 763 762 759 756 755 760 760 752 745 743 747 749 750 752 752 752 750 751 752 755 761 766
824 822 821 820 818 817 816 814 813 812 811 809 808 807 805 804 803 801 800 799 797 796 795 793 792 791 789 789 787 786 784 780 778 774 768 763 761 761 758 758 759 761 763 763 763 764 764 764 763 764 765 767 767 765 766 764 764 767 771 774 770 766 763 756 757 758 757 758 756 753 754 757 757 753 747 749 755 753 754 758 758 758 758 757 758 762 766 769
823 822 820 819 818 816 815 813 812 811 809 808 807 806 805 803 802 801 800 798 797 795 794 793 792 790 789 788 786 786 783 780 776 768 762 762 761 759 757 755 755 757 760 761 762 763 764 763 764 764 766 767 766 764 766 763 763 764 767 770 763 758 758 753 753 753 752 753 753 753 754 755 753 750 749 751 756 755 755 758 761 764 764 764 765 767 771 775
823 822 820 819 817 816 814 813 811 810 808 807 806 805 804 802 801 800 799 798 796 795 793 792 791 790 789 787 787 785 783 780 770 760 758 759 758 756 755 753 752 754 757 759 761 762 763 764 764 764 766 768 765 764 765 761 760 762 762 763 758 755 757 754 751 750 750 751 752 753 754 755 750 748 750 752 757 756 752 751 754 759 762 765 768 770 773 776
822 821 819 818 816 815 813 812 810 809 808 806 805 803 802 801 800 799 798 796 795 794 793 792 790 789 789 787 787 785 785 780 762 754 756 756 755 755 754 752 750 752 755 758 760 761 762 763 764 765 766 768 766 765 763 757 757 758 755 754 753 754 756 753 750 750 750 751 752 753 756 754 748 749 749 750 756 754 748 747 749 754 757 761 765 769 772 774
822 820 819 817 815 814 812 811 809 808 806 805 804 802 801 800 799 798 797 795 795 793 792 791 790 789 788 787 787 785 788 777 755 753 755 753 756 755 755 753 751 753 755 758 759 760 762 762 765 766 766 766 766 764 760 755 755 758 754 751 752 752 753 750 749 750 749 751 753 753 753 750 750 753 749 750 754 750 746 745 747 752 754 757 761 765 769 772
821 819 818 816 814 813 811 810 808 807 805 804 802 801 800 798 797 796 795 794 793 792 792 791 789 789 787 787 786 784 787 772 752 754 754 753 757 756 756 756 754 755 756 758 758 760 761 762 765 765 765 765 764 762 759 755 754 758 757 752 751 751 751 749 747 748 748 750 750 750 750 750 753 754 750 755 756 750 747 744 745 749 753 757 761 765 769 771
819 818 816 815 813 811 810 809 807 806 804 802 801 799 798 797 796 795 794 793 792 791 791 790 789 788 787 786 784 784 781 762 749 754 755 756 757 756 757 756 757 758 757 758 757 759 761 762 764 763 765 763 760 759 757 758 756 756 758 753 750 750 749 747 747 748 748 749 749 750 752 750 750 750 752 760 758 752 749 746 747 750 754 759 762 766 769 771
819 817 815 814 812 810 809 807 806 804 803 801 800 798 797 795 794 793 792 791 790 790 789 789 789 787 787 785 786 783 767 752 752 756 756 756 756 756 757 757 758 758 758 758 757 759 760 761 761 760 763 760 758 758 755 759 758 752 754 753 750 749 747 747 747 747 748 749 749 752 754 750 746 748 757 762 758 754 751 750 751 753 758 762 764 766 767 768
818 816 814 813 811 809 807 806 804 803 801 800 798 797 795 794 793 792 791 790 789 789 788 788 787 786 787 784 787 779 755 750 757 756 755 756 755 755 756 757 759 758 759 758 758 759 758 759 759 757 761 759 757 757 754 757 754 747 749 750 749 749 747 746 747 746 747 748 748 752 754 749 745 749 761 763 758 755 754 755 756 756 761 764 766 767 767 767
817 815 813 811 810 808 806 805 803 801 800 798 796 795 794 792 791 790 789 788 787 787 786 786 786 786 785 784 788 772 749 751 756 753 755 754 753 754 754 756 758 759 759 758 757 757 757 757 757 758 760 757 755 755 752 751 749 745 748 750 749 749 747 746 746 746 747 747 744 749 751 749 748 750 756 760 758 756 755 758 759 760 763 766 767 769 769 770
816 814 812 810 808 806 805 803 801 800 798 796 795 793 792 790 789 788 787 786 785 785 785 784 785 784 783 784 777 759 748 753 753 752 754 752 753 753 753 756 756 758 758 758 756 754 756 756 757 759 755 753 755 755 751 746 747 746 747 752 751 749 748 745 745 745 746 746 741 746 755 755 751 750 752 755 756 757 757 759 761 762 765 767 768 770 770 770
814 812 810 808 807 805 803 801 799 798 796 794 793 791 790 788 787 786 785 784 783 783 783 783 783 782 784 777 760 751 753 754 752 752 751 751 752 749 752 754 753 756 756 756 754 752 755 755 756 757 752 754 755 750 746 744 746 746 746 751 753 754 750 741 742 745 745 744 738 746 763 760 750 752 754 753 755 758 760 762 762 764 765 768 768 769 770 770
813 811 809 807 805 803 802 800 798 796 794 792 790 789 787 785 784 782 782 782 781 781 781 781 781 780 781 768 751 752 754 752 752 750 747 750 751 748 748 751 751 752 753 753 752 751 753 753 756 757 753 753 752 748 749 749 748 747 747 750 753 759 753 738 739 744 745 744 736 745 764 757 748 756 755 752 755 756 760 763 762 764 766 767 768 769 770 770
811 810 808 806 804 802 800 798 796 794 792 790 788 787 785 783 781 779 779 779 778 779 778 779 779 779 779 764 750 751 750 749 749 745 745 749 750 747 745 748 749 749 750 751 750 750 750 751 754 756 754 750 752 755 756 754 750 747 751 752 752 758 753 739 736 739 743 743 737 745 760 754 749 758 755 752 755 754 758 762 762 764 766 767 769 769 770 770
810 809 806 804 802 800 798 796 794 792 791 788 787 785 782 780 777 775 776 775 776 777 777 778 776 778 779 764 750 749 749 748 745 743 745 746 747 746 744 746 747 747 748 748 748 748 747 749 751 753 753 751 753 758 760 760 756 749 750 753 752 755 755 745 736 734 737 741 740 744 753 750 748 756 755 753 755 755 757 761 762 764 765 766 768 769 770 770
809 807 805 803 801 799 797 795 793 790 788 786 784 781 779 776 773 771 771 771 773 773 775 776 774 777 772 756 749 748 747 746 744 743 744 744 745 743 743 746 746 746 746 745 746 746 746 747 748 749 751 752 751 756 762 763 761 756 752 752 751 751 754 750 740 733 734 739 742 743 746 746 749 753 754 753 754 756 757 760 762 763 764 766 766 768 769 769
808 806 804 802 800 797 795 793 791 789 787 784 782 779 776 772 769 768 767 767 769 772 775 773 775 778 763 748 750 748 744 745 743 743 742 741 742 741 742 744 744 745 745 745 743 743 745 744 745 749 750 751 749 751 756 751 751 757 754 752 751 748 750 749 742 734 733 739 741 745 746 748 754 755 754 754 754 756 756 757 760 762 764 766 766 767 768 768
807 804 802 800 798 795 793 791 789 787 785 782 780 777 773 769 768 767 767 767 768 771 773 769 770 770 753 743 748 746 744 745 742 740 739 738 739 739 741 743 743 745 746 746 743 741 742 744 746 747 745 745 744 745 747 741 742 749 747 747 748 748 748 744 738 731 731 740 743 745 746 747 756 758 755 755 756 758 759 759 761 762 764 765 766 767 767 768
805 803 800 798 795 793 791 789 788 786 784 781 779 776 773 773 772 770 768 768 766 765 764 762 762 759 749 744 744 745 745 743 740 738 736 737 738 739 741 742 744 745 745 744 742 738 740 746 745 740 738 739 741 743 743 740 740 743 743 744 744 744 745 741 735 728 728 739 744 744 743 745 754 757 754 755 758 761 761 762 763 763 764 765 766 767 767 768
804 801 799 796 794 791 789 787 786 784 783 781 779 779 778 778 778 774 771 766 761 760 758 757 757 755 750 744 742 746 746 742 739 735 734 735 737 740 741 742 745 746 745 743 741 738 739 744 741 737 736 737 739 741 741 740 741 744 744 744 745 745 742 736 732 728 727 736 743 744 742 745 753 757 756 757 760 761 759 760 761 761 763 765 765 767 767 768
803 800 797 795 792 790 788 786 784 782 782 780 780 780 779 778 777 775 774 767 757 756 756 753 754 751 747 742 740 746 750 747 741 732 731 733 735 739 738 739 744 744 743 743 742 741 740 739 737 736 735 734 737 739 740 742 742 746 747 746 748 745 741 736 731 728 728 734 743 746 745 750 756 758 759 760 759 760 759 757 757 759 761 763 764 765 766 768
801 798 796 793 791 789 786 784 782 780 780 780 780 780 778 776 775 774 774 770 757 751 750 749 749 747 744 739 738 744 748 748 743 732 728 732 733 734 736 738 741 740 741 743 741 742 742 737 733 733 733 734 738 738 739 743 744 746 749 750 749 744 743 743 735 730 729 733 741 746 751 758 761 760 760 759 757 758 760 760 759 759 760 761 762 763 764 765
799 797 795 791 789 787 784 783 780 779 779 779 778 777 776 775 774 774 773 770 760 749 744 742 743 742 738 733 734 740 742 741 739 730 725 729 730 732 734 735 738 739 739 739 740 741 738 732 729 731 733 734 738 739 739 744 748 747 747 749 747 743 742 740 734 730 731 737 740 745 758 765 763 764 764 760 758 759 760 761 761 761 762 762 763 764 764 763
797 796 793 790 788 785 782 781 779 779 778 777 776 775 775 774 772 773 773 771 763 749 741 739 739 735 730 731 733 734 737 736 731 726 724 725 727 729 731 731 734 737 736 737 740 741 737 728 726 730 733 733 737 739 738 741 749 750 746 744 742 740 739 737 733 732 739 747 742 741 759 769 764 765 766 762 762 762 761 762 761 762 762 762 763 763 764 764
796 794 791 788 786 783 781 779 777 778 776 775 775 774 774 773 771 772 773 773 764 747 739 739 737 731 726 729 731 732 738 732 720 721 724 723 724 725 729 729 729 732 733 735 738 737 734 727 724 728 731 734 736 738 735 736 748 752 743 738 738 738 738 739 736 736 745 751 740 735 753 769 768 763 762 762 763 762 762 761 761 761 760 760 760 761 763 764
794 791 789 786 784 783 781 778 776 776 775 774 772 773 773 771 772 770 771 776 764 743 737 738 735 729 725 726 727 732 735 722 713 718 720 721 723 723 727 729 727 729 728 733 738 732 726 726 726 726 729 733 736 737 732 732 745 749 736 733 737 738 740 740 738 740 744 745 741 737 745 762 767 759 754 758 762 762 761 761 760 759 758 758 758 759 762 762
792 789 786 784 782 781 780 777 775 774 773 772 770 772 771 770 772 769 775 779 758 738 736 734 730 727 724 724 725 726 723 714 713 715 712 718 722 721 727 728 726 727 724 730 736 726 720 725 726 725 728 732 732 731 728 729 740 739 729 731 734 735 738 737 738 741 742 745 749 746 745 759 767 757 752 757 760 762 760 758 757 755 755 756 756 759 760 761
789 786 783 781 779 778 777 776 774 771 770 770 770 771 769 771 771 769 779 774 745 732 735 732 730 729 725 724 725 723 718 715 715 711 710 717 719 719 725 724 723 725 722 726 729 721 717 719 720 722 726 728 726 724 723 728 734 729 726 731 732 734 737 736 739 742 745 752 755 750 747 758 765 758 757 762 760 759 757 754 753 752 752 753 754 758 759 761
786 783 780 779 776 774 775 774 772 770 770 769 770 770 769 771 771 776 781 764 740 735 736 733 730 728 726 726 726 724 722 719 714 711 712 715 717 718 719 719 721 723 722 724 726 719 713 712 714 717 719 720 720 721 721 724 726 724 727 733 734 736 736 737 741 743 752 759 754 749 747 753 759 753 754 756 746 744 748 750 751 749 749 750 751 754 756 759
783 780 777 776 774 773 774 772 770 769 770 769 769 769 770 771 775 782 773 748 738 739 735 733 730 726 727 729 727 724 723 721 716 715 714 712 719 722 719 721 722 723 725 726 725 721 715 713 713 710 710 714 717 720 721 720 720 723 731 736 741 744 741 744 747 749 761 762 746 742 745 752 757 746 742 742 730 730 737 741 744 743 744 745 747 750 752 756
780 776 773 772 771 770 770 770 768 769 769 769 768 768 770 774 776 773 757 739 738 737 732 733 731 727 728 730 730 725 722 722 719 718 713 710 719 722 720 721 720 722 729 727 724 723 719 714 710 707 707 709 716 723 725 722 722 726 733 739 750 756 755 758 758 756 763 756 739 739 744 753 752 734 730 733 726 725 727 727 730 734 737 740 743 747 750 754
776 772 769 768 767 767 766 767 767 768 768 767 769 768 772 777 768 753 747 743 738 733 732 733 731 728 728 731 733 725 721 721 718 718 714 708 715 719 717 717 713 716 723 723 723 725 723 716 708 708 708 705 710 721 725 725 725 728 731 739 750 757 762 768 766 762 761 747 736 740 745 751 747 726 718 721 717 717 718 720 724 728 734 739 743 747 750 753
772 768 766 764 764 764 764 765 766 767 767 767 769 770 771 770 754 739 740 741 734 732 733 731 729 726 726 730 729 720 719 723 718 716 714 710 714 717 717 715 712 712 714 718 723 723 725 722 710 706 706 702 704 711 714 717 723 725 725 732 741 744 749 758 758 756 754 744 742 748 747 746 739 722 712 708 709 715 718 721 726 730 735 739 744 749 751 754
768 766 764 762 761 761 762 764 765 766 767 767 769 770 767 758 746 740 740 735 734 735 731 727 727 726 726 727 725 715 715 721 720 716 713 711 712 713 713 712 711 712 712 717 720 717 720 718 703 697 698 698 703 705 703 711 723 725 723 729 735 730 731 741 747 745 741 739 745 748 742 734 724 716 713 709 709 718 722 725 729 733 736 739 744 748 750 753
766 763 761 760 760 760 761 762 764 765 766 767 769 767 759 750 744 742 738 733 735 736 731 726 725 727 727 724 721 714 711 715 718 719 714 709 709 708 708 708 707 709 710 711 712 712 717 714 698 695 698 695 699 702 700 707 719 723 726 729 727 719 719 733 745 746 741 739 743 742 736 732 725 719 717 713 714 722 725 728 732 734 736 739 743 746 748 750
766 763 761 760 759 760 760 761 763 764 765 768 768 760 750 745 741 740 737 734 735 735 733 730 726 726 724 720 718 714 713 715 714 717 713 707 706 705 706 706 703 705 706 706 706 705 710 710 697 694 700 695 692 697 700 701 706 718 726 723 719 719 721 727 739 748 749 744 740 738 736 736 733 729 725 722 723 726 727 729 733 734 735 738 740 742 745 747
768 765 762 761 760 760 760 761 762 765 766 767 764 753 746 743 740 739 738 735 734 734 734 732 728 726 720 718 719 716 717 717 713 713 711 707 705 702 702 704 700 700 702 704 708 704 703 707 698 691 697 695 690 698 708 704 699 707 713 711 716 727 732 733 737 744 749 747 741 738 739 736 730 730 731 727 725 727 728 730 731 732 733 735 738 741 744 746
769 766 763 761 761 760 760 762 762 765 767 765 760 751 745 742 736 735 735 734 735 734 733 731 729 727 720 717 721 718 716 714 710 708 707 707 706 698 697 700 698 698 699 703 709 706 701 705 701 691 689 694 696 703 712 711 703 703 705 706 712 719 724 729 733 735 738 744 742 738 739 731 720 721 725 720 717 720 724 726 727 727 729 731 735 739 743 745
770 768 765 762 762 761 761 762 763 767 766 761 757 751 745 741 735 731 729 731 734 733 731 731 728 726 723 721 721 719 715 710 706 704 703 704 704 699 695 696 695 696 697 700 704 704 703 704 702 694 689 696 702 700 702 706 708 709 711 714 714 713 716 721 728 730 729 733 738 739 738 724 707 710 715 709 708 711 714 717 721 723 725 729 732 736 740 744
772 771 767 764 764 762 763 764 764 766 764 757 755 751 746 742 738 732 727 727 731 731 731 732 730 728 728 724 720 719 717 709 703 701 699 701 702 699 693 690 692 694 697 701 702 701 703 702 701 700 697 698 697 690 691 696 701 705 710 714 713 712 719 727 733 732 725 727 731 732 733 718 701 703 707 703 703 703 704 709 715 719 722 726 730 734 738 742
775 773 768 765 765 763 764 766 763 762 761 756 751 747 744 743 741 734 728 727 729 730 731 732 730 728 729 724 718 716 715 708 702 698 694 696 699 695 689 686 688 690 693 699 699 695 697 701 702 700 696 694 689 684 687 689 693 699 701 705 708 709 715 723 728 726 723 728 728 724 724 713 701 703 704 702 704 703 703 708 712 717 720 723 729 732 736 740
778 775 768 765 766 764 765 767 762 761 760 753 747 743 741 744 743 736 730 728 727 727 728 728 726 725 724 721 715 712 709 703 699 695 690 690 691 688 685 683 685 687 690 694 695 692 695 700 702 699 693 690 686 685 687 687 691 698 699 701 705 705 705 707 713 715 717 724 724 724 727 713 700 704 705 704 707 707 709 712 715 720 722 725 729 732 736 740
779 777 770 766 765 764 768 771 769 765 760 752 748 742 738 741 741 735 731 730 727 727 728 726 724 722 720 718 715 712 708 703 699 697 695 691 686 682 682 681 683 686 687 688 688 690 695 699 700 700 701 701 699 699 698 694 692 695 698 700 699 700 701 703 710 713 715 722 719 719 726 714 702 707 706 704 708 710 713 715 718 724 726 728 731 733 736 740
778 777 773 769 766 765 769 772 772 770 764 757 753 744 737 738 735 731 732 730 726 727 728 725 721 721 720 719 716 711 706 704 703 703 700 695 686 680 680 681 682 682 682 681 681 684 692 696 695 698 706 711 709 705 701 697 695 694 695 696 696 698 700 702 709 711 714 726 722 714 717 715 711 712 708 706 711 713 717 718 719 723 725 726 731 733 736 740
780 780 777 773 768 767 769 770 770 771 767 763 757 746 740 739 733 729 731 730 725 725 726 723 719 718 718 716 714 710 705 703 704 702 701 698 690 683 680 680 680 680 680 679 678 683 691 693 691 691 695 699 697 695 693 691 694 696 695 694 694 697 698 699 706 708 711 722 720 712 713 713 714 717 712 710 713 714 717 719 720 723 724 725 729 732 736 740
784 786 785 782 776 771 770 769 768 770 768 764 757 748 744 743 735 730 729 728 727 726 724 720 718 718 717 713 713 713 708 704 704 704 703 701 696 690 683 681 681 679 679 678 678 684 688 689 690 688 686 685 684 685 686 684 688 691 693 694 694 695 698 699 701 705 709 715 715 716 717 708 707 715 713 711 714 714 717 718 717 720 722 724 729 732 736 741
787 788 788 787 784 780 776 772 770 771 768 761 755 750 748 745 740 736 733 729 728 727 724 721 720 721 720 715 714 714 710 707 708 709 706 702 700 694 682 680 682 677 678 678 676 681 685 686 689 688 685 684 681 680 680 679 684 686 687 692 693 694 697 694 695 703 705 702 705 715 717 705 703 711 710 707 710 711 712 714 714 717 721 724 728 732 735 740
790 790 788 787 787 785 781 776 773 772 767 759 754 752 751 748 743 741 738 733 730 728 727 728 726 723 721 717 714 716 715 713 713 712 709 706 706 699 689 687 685 678 679 680 677 680 685 686 687 685 683 684 681 678 678 679 684 687 687 689 689 693 697 693 696 707 707 704 708 714 714 707 705 709 709 707 709 710 712 715 716 719 722 724 727 731 734 738
795 795 791 789 787 783 779 776 773 772 766 759 757 755 753 751 746 742 738 734 733 730 727 729 728 723 722 720 717 719 719 717 716 714 711 709 707 702 698 697 692 684 681 682 680 680 681 685 688 681 680 687 684 679 681 681 683 690 694 692 689 695 700 698 701 709 709 711 717 715 711 709 708 709 709 709 710 712 716 718 718 721 722 724 728 731 733 737
798 797 794 792 788 780 776 774 772 771 767 761 760 758 755 752 749 746 740 734 734 733 729 729 727 723 723 721 718 719 718 717 717 714 711 709 706 703 701 700 699 693 686 683 682 679 678 683 686 678 680 692 692 686 687 684 683 691 697 694 691 695 700 698 700 702 702 706 715 715 709 707 707 708 708 710 712 714 717 718 719 721 722 724 728 731 734 737
797 795 793 793 789 780 776 775 772 770 767 763 762 761 758 754 750 747 743 734 731 730 727 727 727 725 725 722 717 715 715 715 713 708 706 707 705 705 703 702 703 702 695 687 683 684 684 682 682 681 686 697 701 695 688 686 693 700 700 695 694 696 698 698 697 698 698 701 705 705 701 701 707 710 709 712 714 715 716 716 715 718 722 725 728 730 733 736